• In Czech Republic
  • List of Countries
  • For 7 days
  • Water Temperature
  • Satellite Maps
  • Weather Map
  • Weather Widgets
  • user-avatar
    Login

    Hourly Weather Salzburg

    Today, 22 July, Saturday

    Time Temperature Precipitation Wind Pressure Humidity
    00:00 +12°C° 0 mm 2 mps 626 mmHg 84%
    01:00 +12°C° 0 mm 2 mps 626 mmHg 79%
    02:00 +12°C° 0 mm 2 mps 626 mmHg 80%
    03:00 +10°C° 0 mm 2 mps 626 mmHg 80%
    04:00 +9°C° 0 mm 2 mps 626 mmHg 81%
    05:00 +12°C° 0 mm 1 mps 627 mmHg 78%
    06:00 +13°C° 0 mm 1 mps 627 mmHg 75%
    07:00 +15°C° 0 mm 1 mps 628 mmHg 71%
    08:00 +16°C° 0.1 mm 1 mps 629 mmHg 68%
    09:00 +18°C° 0.1 mm 1 mps 629 mmHg 65%
    10:00 +19°C° 0.1 mm 2 mps 630 mmHg 62%
    11:00 +20°C° 0.7 mm 1 mps 630 mmHg 67%
    12:00 +19°C° 0.7 mm 1 mps 630 mmHg 71%
    13:00 +19°C° 0.7 mm 1 mps 630 mmHg 75%
    14:00 +19°C° 1.2 mm 1 mps 630 mmHg 75%
    15:00 +20°C° 1.2 mm 1 mps 629 mmHg 76%
    16:00 +20°C° 1.2 mm 1 mps 629 mmHg 76%
    17:00 +19°C° 1 mm 1 mps 629 mmHg 80%
    18:00 +16°C° 1 mm 0 mps 629 mmHg 84%
    19:00 +15°C° 1 mm 0 mps 629 mmHg 89%
    20:00 +14°C° 0.5 mm 0 mps 628 mmHg 90%
    21:00 +14°C° 0.5 mm 1 mps 628 mmHg 91%
    22:00 +13°C° 0.5 mm 1 mps 628 mmHg 92%
    23:00 +12°C° 0.4 mm 1 mps 628 mmHg 92%

    Tomorrow, 23 July, Sunday

    Time Temperature Precipitation Wind Pressure Humidity
    00:00 +12°C° 0.4 mm 1 mps 628 mmHg 92%
    01:00 +12°C° 0.4 mm 1 mps 628 mmHg 92%
    02:00 +11°C° 0.5 mm 1 mps 628 mmHg 93%
    03:00 +11°C° 0.5 mm 1 mps 628 mmHg 93%
    04:00 +11°C° 0.5 mm 1 mps 628 mmHg 94%
    05:00 +12°C° 0.2 mm 1 mps 628 mmHg 93%
    06:00 +13°C° 0.2 mm 1 mps 628 mmHg 92%
    07:00 +13°C° 0.2 mm 1 mps 629 mmHg 91%
    08:00 +15°C° 0.2 mm 1 mps 629 mmHg 82%
    09:00 +18°C° 0.2 mm 1 mps 630 mmHg 74%
    10:00 +19°C° 0.2 mm 1 mps 631 mmHg 65%
    11:00 +19°C° 0.3 mm 1 mps 630 mmHg 66%
    12:00 +18°C° 0.3 mm 2 mps 630 mmHg 66%
    13:00 +18°C° 0.3 mm 2 mps 630 mmHg 67%
    14:00 +17°C° 0.9 mm 2 mps 630 mmHg 75%
    15:00 +16°C° 0.9 mm 2 mps 629 mmHg 82%
    16:00 +15°C° 0.9 mm 2 mps 629 mmHg 90%
    17:00 +15°C° 0.8 mm 1 mps 629 mmHg 92%
    18:00 +14°C° 0.8 mm 1 mps 629 mmHg 94%
    19:00 +13°C° 0.8 mm 1 mps 628 mmHg 96%
    20:00 +13°C° 0.7 mm 1 mps 628 mmHg 97%
    21:00 +12°C° 0.7 mm 1 mps 628 mmHg 97%
    22:00 +12°C° 0.7 mm 1 mps 628 mmHg 98%
    23:00 +12°C° 0.2 mm 1 mps 628 mmHg 98%

    Day after tomorrow, 24 July, Monday

    Time Temperature Precipitation Wind Pressure Humidity
    00:00 +11°C° 0.2 mm 1 mps 628 mmHg 98%
    01:00 +10°C° 0.2 mm 0 mps 627 mmHg 97%
    02:00 +11°C° 0.3 mm 1 mps 627 mmHg 97%
    03:00 +11°C° 0.3 mm 1 mps 626 mmHg 97%
    04:00 +11°C° 0.3 mm 1 mps 626 mmHg 97%
    05:00 +11°C° 1 mm 1 mps 626 mmHg 97%
    06:00 +11°C° 1 mm 1 mps 625 mmHg 97%
    07:00 +11°C° 1 mm 0 mps 625 mmHg 96%
    08:00 +12°C° 1.1 mm 1 mps 625 mmHg 96%
    09:00 +12°C° 1.1 mm 1 mps 625 mmHg 95%
    10:00 +13°C° 1.1 mm 1 mps 625 mmHg 95%
    11:00 +12°C° 2.6 mm 1 mps 624 mmHg 95%
    12:00 +12°C° 2.6 mm 1 mps 624 mmHg 96%
    13:00 +11°C° 2.6 mm 1 mps 623 mmHg 97%
    14:00 +11°C° 2.8 mm 1 mps 623 mmHg 97%
    15:00 +9°C° 2.8 mm 2 mps 623 mmHg 97%
    16:00 +9°C° 2.8 mm 2 mps 622 mmHg 97%
    17:00 +8°C° 1.9 mm 2 mps 622 mmHg 97%
    18:00 +8°C° 1.9 mm 2 mps 622 mmHg 97%
    19:00 +8°C° 1.9 mm 2 mps 622 mmHg 97%
    20:00 +7°C° 0.5 mm 2 mps 622 mmHg 97%
    21:00 +7°C° 0.5 mm 2 mps 622 mmHg 97%
    22:00 +7°C° 0.5 mm 2 mps 622 mmHg 97%
    23:00 +6°C° 0.1 mm 2 mps 622 mmHg 97%

    25 July, Tuesday

    Time Temperature Precipitation Wind Pressure Humidity
    00:00 +6°C° 0.1 mm 2 mps 622 mmHg 96%
    01:00 +6°C° 0.1 mm 2 mps 622 mmHg 96%
    02:00 +6°C° 0.1 mm 2 mps 621 mmHg 96%
    03:00 +5°C° 0.1 mm 2 mps 621 mmHg 96%
    04:00 +5°C° 0.1 mm 2 mps 621 mmHg 96%
    05:00 +5°C° 0.2 mm 2 mps 621 mmHg 95%
    06:00 +6°C° 0.2 mm 2 mps 621 mmHg 94%
    07:00 +6°C° 0.2 mm 2 mps 621 mmHg 93%
    08:00 +6°C° 0.4 mm 2 mps 621 mmHg 89%
    09:00 +7°C° 0.4 mm 2 mps 621 mmHg 86%
    10:00 +8°C° 0.4 mm 2 mps 622 mmHg 82%
    11:00 +8°C° 0.4 mm 2 mps 622 mmHg 80%
    12:00 +9°C° 0.4 mm 3 mps 622 mmHg 79%
    13:00 +9°C° 0.4 mm 3 mps 622 mmHg 77%
    14:00 +9°C° 0.3 mm 3 mps 622 mmHg 77%
    15:00 +10°C° 0.3 mm 3 mps 622 mmHg 77%
    16:00 +10°C° 0.3 mm 3 mps 622 mmHg 77%
    17:00 +9°C° 0.2 mm 2 mps 622 mmHg 81%
    18:00 +9°C° 0.2 mm 2 mps 622 mmHg 85%
    19:00 +9°C° 0.2 mm 1 mps 622 mmHg 89%
    20:00 +7°C° 0.1 mm 2 mps 621 mmHg 91%
    21:00 +6°C° 0.1 mm 2 mps 621 mmHg 93%
    22:00 +4°C° 0.1 mm 2 mps 621 mmHg 96%
    23:00 +4°C° 0 mm 2 mps 621 mmHg 95%

    26 July, Wednesday

    Time Temperature Precipitation Wind Pressure Humidity
    00:00 +4°C° 0 mm 2 mps 621 mmHg 95%
    01:00 +3°C° 0 mm 2 mps 621 mmHg 95%
    02:00 +3°C° 0 mm 2 mps 620 mmHg 94%
    03:00 +3°C° 0 mm 2 mps 620 mmHg 93%
    04:00 +3°C° 0 mm 2 mps 620 mmHg 93%
    05:00 +5°C° 0 mm 1 mps 621 mmHg 88%
    06:00 +7°C° 0 mm 1 mps 621 mmHg 84%
    07:00 +8°C° 0 mm 1 mps 622 mmHg 79%
    08:00 +10°C° 0 mm 1 mps 622 mmHg 70%
    09:00 +13°C° 0 mm 2 mps 623 mmHg 60%
    10:00 +15°C° 0 mm 2 mps 624 mmHg 50%
    11:00 +14°C° 0.4 mm 2 mps 624 mmHg 56%
    12:00 +14°C° 0.4 mm 2 mps 623 mmHg 61%
    13:00 +13°C° 0.4 mm 3 mps 623 mmHg 67%
    14:00 +12°C° 0.8 mm 3 mps 623 mmHg 72%
    15:00 +11°C° 0.8 mm 3 mps 623 mmHg 77%
    16:00 +10°C° 0.8 mm 3 mps 623 mmHg 82%
    17:00 +9°C° 0.4 mm 2 mps 623 mmHg 85%
    18:00 +9°C° 0.4 mm 2 mps 623 mmHg 88%
    19:00 +9°C° 0.4 mm 1 mps 622 mmHg 92%
    20:00 +8°C° 0.1 mm 1 mps 622 mmHg 93%
    21:00 +7°C° 0.1 mm 1 mps 623 mmHg 94%
    22:00 +7°C° 0.1 mm 1 mps 623 mmHg 95%
    23:00 +7°C° 0.2 mm 1 mps 622 mmHg 95%

    27 July, Thursday

    Time Temperature Precipitation Wind Pressure Humidity
    00:00 +7°C° 0.2 mm 1 mps 622 mmHg 95%
    01:00 +6°C° 0.2 mm 1 mps 622 mmHg 95%
    02:00 +6°C° 0.5 mm 1 mps 622 mmHg 95%
    03:00 +6°C° 0.5 mm 1 mps 622 mmHg 95%
    04:00 +6°C° 0.5 mm 1 mps 622 mmHg 95%
    05:00 +7°C° 0.5 mm 1 mps 623 mmHg 95%
    06:00 +7°C° 0.5 mm 1 mps 623 mmHg 95%
    07:00 +8°C° 0.5 mm 1 mps 623 mmHg 94%
    08:00 +9°C° 0.2 mm 1 mps 624 mmHg 88%
    09:00 +10°C° 0.2 mm 1 mps 624 mmHg 82%
    10:00 +12°C° 0.2 mm 1 mps 625 mmHg 76%
    11:00 +12°C° 0.2 mm 1 mps 625 mmHg 72%
    12:00 +13°C° 0.2 mm 2 mps 625 mmHg 67%
    13:00 +14°C° 0.2 mm 2 mps 626 mmHg 63%
    14:00 +14°C° 0.2 mm 2 mps 625 mmHg 63%
    15:00 +14°C° 0.2 mm 2 mps 625 mmHg 64%
    16:00 +14°C° 0.2 mm 1 mps 625 mmHg 65%
    17:00 +13°C° 0.2 mm 1 mps 625 mmHg 72%
    18:00 +12°C° 0.2 mm 1 mps 625 mmHg 78%
    19:00 +11°C° 0.2 mm 1 mps 625 mmHg 85%
    20:00 +10°C° 0.2 mm 1 mps 625 mmHg 88%
    21:00 +9°C° 0.2 mm 1 mps 625 mmHg 90%
    22:00 +9°C° 0.2 mm 1 mps 626 mmHg 92%
    23:00 +8°C° 0.4 mm 1 mps 626 mmHg 93%
    Show more